Sioux Falls, SD

6:57 AM CST on February 09, 2016 (GMT -0600)
Foss

Weather History for KFSD - June, 2013

Change the Weather History Date:

Wednesday, June 19, 2013

  Actual Average Record
Temperature  
Mean Temperature 75 °F 69 °F  
Max Temperature 86 °F 81 °F 105 °F (1988)
Min Temperature 63 °F 58 °F 38 °F (1976)
Degree Days  
Heating Degree Days 0 1  
Month to date heating degree days 69 44  
Since 1 June heating degree days 69 44  
Since 1 July heating degree days 7884 7699  
Cooling Degree Days 10 5  
Month to date cooling degree days 46 65  
Year to date cooling degree days 88 101  
Since 1 June cooling degree days 46 65  
Growing Degree Days 24 (Base 50)    
Moisture  
Dew Point 59 °F    
Average Humidity 55    
Maximum Humidity 73    
Minimum Humidity 34    
Precipitation  
Precipitation T in 0.13 in 1.20 in (1946)
Month to date precipitation 2.79 2.52  
Year to date precipitation 15.10 11.85  
Snow  
Snow 0.00 in 0.00 in 0.00 in ()
Month to date snowfall 0.0 0.0  
Since 1 June snowfall 0.0 0.0  
Since 1 July snowfall 43.3 44.5  
Snow Depth 0.00 in    
Sea Level Pressure  
Sea Level Pressure 29.92 in    
Wind  
Wind Speed 12 mph (SSE)    
Max Wind Speed 21 mph    
Max Gust Speed 28 mph    
Visibility 10 miles    
Events Thunderstorm    
T = Trace of Precipitation, MM = Missing Value Source: NWS Daily Summary

Daily Weather History Graph

Daily Weather History Graph

Search for Another Location

Airport or City:

Trip Planner

Search our weather history database for the weather conditions in past years. The results will help you decide how hot, cold, wet, or windy it might be!

Date:

Astronomy

Jun. 19, 2013 Rise Set
Actual Time 5:45 AM CDT 9:11 PM CDT
Civil Twilight 5:09 AM CDT 9:47 PM CDT
Nautical Twilight 4:22 AM CDT 10:34 PM CDT
Astronomical Twilight 3:23 AM CDT 11:33 PM CDT
Moon 5:00 PM CDT (6/19) 2:37 AM CDT (6/19)
Length of Visible Light 16h 37m
Length of Day
15h 26m
Waxing Gibbous, 80% of the Moon is Illuminated
Jun 19
Waxing Gibbous
Jun 23
Full
Jun 29
Last Quarter
Jul 8
New
Jul 15
First Quarter

Hourly Weather History & Observations

Time (CDT) Temp. Heat Index Dew Point Humidity Pressure Visibility Wind Dir Wind Speed Gust Speed Precip Events Conditions
12:56 AM 68.0 °F - 55.0 °F 63% 29.99 in 10.0 mi ESE 3.5 mph - N/A   Scattered Clouds
1:56 AM 64.9 °F - 55.0 °F 70% 29.97 in 10.0 mi ENE 3.5 mph - N/A   Clear
2:56 AM 64.9 °F - 55.0 °F 70% 29.96 in 10.0 mi Calm Calm - N/A   Mostly Cloudy
3:56 AM 64.9 °F - 55.0 °F 70% 29.96 in 10.0 mi Calm Calm - N/A   Mostly Cloudy
4:56 AM 64.0 °F - 54.0 °F 70% 29.96 in 10.0 mi ESE 4.6 mph - N/A   Mostly Cloudy
5:56 AM 64.0 °F - 54.0 °F 70% 29.98 in 10.0 mi SE 5.8 mph - N/A   Scattered Clouds
6:56 AM 64.9 °F - 55.9 °F 73% 29.99 in 10.0 mi South 3.5 mph - N/A   Scattered Clouds
7:56 AM 71.1 °F - 57.0 °F 61% 29.99 in 10.0 mi South 4.6 mph - N/A   Scattered Clouds
8:56 AM 75.0 °F - 60.1 °F 60% 29.97 in 10.0 mi SSE 4.6 mph - N/A   Scattered Clouds
9:56 AM 78.1 °F - 60.1 °F 54% 29.96 in 10.0 mi South 10.4 mph - N/A   Mostly Cloudy
10:56 AM 81.0 °F 81.0 °F 57.0 °F 44% 29.94 in 10.0 mi South 17.3 mph 23.0 mph N/A   Mostly Cloudy
11:56 AM 82.9 °F 82.4 °F 57.0 °F 41% 29.93 in 10.0 mi SSE 17.3 mph 24.2 mph N/A   Mostly Cloudy
12:56 PM 84.0 °F 84.0 °F 60.1 °F 44% 29.92 in 10.0 mi SSE 20.7 mph 26.5 mph N/A   Mostly Cloudy
1:56 PM 82.9 °F 83.3 °F 61.0 °F 47% 29.90 in 10.0 mi South 16.1 mph 23.0 mph N/A   Mostly Cloudy
2:56 PM 84.0 °F 84.0 °F 60.1 °F 44% 29.89 in 10.0 mi South 18.4 mph 24.2 mph N/A   Mostly Cloudy
3:56 PM 86.0 °F 86.1 °F 61.0 °F 43% 29.87 in 10.0 mi SE 19.6 mph 25.3 mph N/A   Mostly Cloudy
4:56 PM 84.9 °F 85.4 °F 62.1 °F 46% 29.86 in 10.0 mi South 16.1 mph 21.9 mph N/A   Overcast
5:09 PM 82.4 °F 83.4 °F 62.6 °F 51% 29.88 in 10.0 mi South 16.1 mph 25.3 mph N/A Thunderstorm Thunderstorm
5:56 PM 84.0 °F 84.9 °F 63.0 °F 49% 29.85 in 10.0 mi South 15.0 mph 24.2 mph 0.00 in Thunderstorm Thunderstorm
6:25 PM 84.2 °F 85.6 °F 64.4 °F 51% 29.87 in 10.0 mi SSE 13.8 mph 23.0 mph N/A   Mostly Cloudy
6:56 PM 84.0 °F 85.4 °F 64.0 °F 51% 29.84 in 10.0 mi SSE 13.8 mph 20.7 mph N/A   Mostly Cloudy
7:56 PM 82.9 °F 84.0 °F 63.0 °F 51% 29.84 in 10.0 mi SSE 15.0 mph 24.2 mph N/A   Scattered Clouds
8:56 PM 81.0 °F 82.2 °F 63.0 °F 54% 29.84 in 10.0 mi South 15.0 mph 20.7 mph N/A   Scattered Clouds
9:56 PM 78.8 °F - 62.6 °F 57% 29.86 in 10.0 mi SSE 15.0 mph 20.7 mph N/A   Scattered Clouds
10:56 PM 78.8 °F - 60.8 °F 54% 29.87 in 10.0 mi SSE 16.1 mph - N/A   Scattered Clouds
11:56 PM 77.0 °F - 61.0 °F 58% 29.87 in 10.0 mi SSE 16.1 mph 25.3 mph N/A   Scattered Clouds